Regional Weather Roundup
Issued by NWS Portland, ME

Home | Current Version | Previous Version | Text Only | Print | Product List | Glossary On
Versions: 1 2 3 4 5 6 7 8 9 10 11 12 13 14 15 16 17 18 19 20 21 22 23 24 25 26 27 28 29 30 31 32 33 34 35 36 37 38 39 40 41 42 43 44 45 46 47 48 49 50
000
ASUS41 KGYX 051710
RWRGYX
WEATHER ROUNDUP FOR MAINE AND NEW HAMPSHIRE
NATIONAL WEATHER SERVICE GRAY ME
100 PM EDT TUE MAY 05 2015

MEZ002-005-006-010-012-015-018-020-021-024-026-027-029-051800-
MAINE

CITY           SKY/WX    TMP DP  RH WIND       PRES   REMARKS
PORTLAND       CLOUDY    73  42  32 NW13      30.19S
SANFORD        PTSUNNY   73  36  25 W7        30.19S
BAR HARBOR     CLOUDY    63  36  36 W9        30.15F
WISCASSET      CLOUDY    67  26  21 VRB7      30.21S
ROCKLAND       CLOUDY    66  30  26 W13G21    30.17S
FRYEBURG       PTSUNNY   70  26  19 N8        30.19F
AUGUSTA        CLOUDY    63  33  32 W8        30.19F
WATERVILLE     CLOUDY    66  36  32 W7        30.15F
BANGOR         PTSUNNY   66  29  24 NW15      30.15F
GREENVILLE       N/A     61  30  31 N14G23    30.13S
MILLINOCKET    SUNNY     65  29  25 W15G23    30.12F
HOULTON        SUNNY     65  26  23 NW9G22    30.06F
PRESQUE ISLE   SUNNY     61  25  25 W21G26    30.08S
FRENCHVILLE    SUNNY     58  28  32 NW17G28   30.06F
CARIBOU        SUNNY     61  26  26 W12G26    30.06F
$$

NHZ002-005-008-009-011-012-014-051800-
NEW HAMPSHIRE

CITY           SKY/WX    TMP DP  RH WIND       PRES   REMARKS
PORTSMOUTH     PTSUNNY   76  35  22 NW13      30.17S
ROCHESTER      MOSUNNY   75  29  18 N12G22    30.18F
NASHUA         MOSUNNY   77  43  29 N8G20     30.18F
MANCHESTER     PTSUNNY   77  33  20 N15G22    30.17F
CONCORD        MOSUNNY   76  34  21 NW9G17    30.19F
LACONIA        PTSUNNY   70  34  26 NW9       30.19F
PLYMOUTH       FAIR      69  41  35 W8        30.21F
BERLIN         MOSUNNY   64  29  26 W7G21     30.21F
WHITEFIELD     MOSUNNY   66  22  18 NW12G21   30.22F
JAFFREY        MOSUNNY   74  36  25 NW13      30.21F
KEENE          PTSUNNY   73  34  23 N12G17    30.21F
LEBANON        PTSUNNY   72  28  19 N8        30.21F
MT WASHINGTON  MOSUNNY   36  27  69 NW37        N/A
$$

VTZ005-007-008-051800-
VERMONT

CITY           SKY/WX    TMP DP  RH WIND       PRES   REMARKS
ST JOHNSBURY     N/A     66  27  23 MISG      30.21F
MONTPELIER     MOSUNNY   64  25  22 W13       30.28F
BURLINGTON     MOSUNNY   66  34  30 VRB3      30.25F
$$

MAZ007-012-024-CTZ003-RIZ002-NYZ038-NYZ072-051800-
SOUTHERN NEW ENGLAND AND NY

CITY           SKY/WX    TMP DP  RH WIND       PRES   REMARKS
BOSTON         PTSUNNY   67  59  75 S8        30.20F
WORCESTER      MOSUNNY   71  52  50 VRB7      30.21F
NANTUCKET      MOSUNNY   62  49  62 W8        30.22R
PROVIDENCE     PTSUNNY   73  54  51 N6        30.21S
HARTFORD       PTSUNNY   79  51  37 NW7       30.18F
ALBANY         PTSUNNY   75  44  33 VRB5      30.21F
NEW YORK CITY  CLOUDY    77  54  44 N7        30.20F
$$

ANZ081-ANZ082-ANZ150-NHZ014-MEZ023>029-051800-
COASTAL MARINE OBSERVATIONS

STATION/POSITION TIME  TEMP    WIND        PRES    WAVE
                       AIR SEA DIR/SP/G            HT/PER
                 (UTC) (F)     (DEG/KT/KT) (MB)    (FT/S)
$$

.............KEY..............
   WCI - WIND CHILL
   TC  - TEMPERATURE IN CELSIUS
   VSB - VISIBILITY IN MILES
   HX  - HEAT INDEX
   FAIR- INDICATES FEW OR NO CLOUDS BELOW 12,000 FT, WITH NO
         SIGNIFICANT WEATHER AND/OR OBSTRUCTIONS TO VISIBILITY.




USA.gov is the U.S. government's official web portal to all federal, state and local government web resources and services.